Regional Weather Roundup
Issued by NWS

Home | Current Version | Previous Version | Text Only | Print | Product List | Glossary Off
Versions: 1 2 3 4 5 6 7 8 9 10 11 12 13 14 15 16 17 18 19 20 21 22 23 24 25 26 27 28 29 30 31 32 33 34 35 36 37 38 39 40 41 42 43 44 45 46 47 48 49 50

000
ASUS43 KDTX 271510
RWRMI
MICHIGAN HOURLY REGIONAL WEATHER ROUNDUP
NATIONAL WEATHER SERVICE DETROIT/PONTIAC MI
1000 AM EST TUE JAN 27 2015

NOTE: "FAIR" INDICATES FEW OR NO CLOUDS BELOW 12,000 FEET WITH NO
SIGNIFICANT WEATHER AND/OR OBSTRUCTION TO VISIBILITY.

MIZ047>049-052>055-059>063-066>070-074>076-081>083-271600-
SOUTHEAST LOWER MICHIGAN

CITY           SKY/WX    TMP DP  RH WIND       PRES   REMARKS
ADRIAN         SUNNY     18  10  71 NE10      30.10R
ALMA           PTSUNNY   18  13  79 NE7       30.14R
ANN ARBOR      MOSUNNY   21  12  68 NE8       30.09R
BAD AXE        FLURRIES  19  14  80 N9        30.12R
DETROIT CITY   SUNNY     21   9  59 N7        30.10R
DETROIT        MOSUNNY   20  11  68 N7        30.10S
FLINT          SUNNY     19  10  68 N8        30.11R
GROSSE ILE     SUNNY     18  12  79 N6        30.08S
HILLSDALE      SUNNY     17  11  77 N5        30.07R
HOWELL         MOSUNNY   16  12  85 N3        30.09S

CITY           SKY/WX    TMP DP  RH WIND       PRES   REMARKS
JACKSON        PTSUNNY   20  11  68 N6        30.09S
LAMBERTVILLE   SUNNY     19  12  73 CALM      30.10S
LANSING        SUNNY     18  10  71 N5        30.13R
LAPEER         NOT AVBL
MASON          SUNNY     16  10  75 N3        30.10R
MONROE         SUNNY     18  12  79 N7        30.08R
MT. CLEMENS    MOSUNNY   17  11  76 N7        30.07R
PONTIAC        MOSUNNY   17  10  74 N9        30.07R
PORT HOPE        N/A     21  13  71 N15       30.12R
PORT HURON     CLOUDY    19  14  79 NE10      30.09R
TRI CITIES     SUNNY     19  12  74 N9        30.14S
YPSILANTI      SUNNY     22  11  62 N9        30.10R
$$
MIZ043>046-050>051-056>058-064>065-071>073-077>080-271600-
SOUTHWEST LOWER MICHIGAN

CITY           SKY/WX    TMP DP  RH WIND       PRES   REMARKS
BATTLE CREEK   SUNNY     20  11  68 NE7       30.11R
BENTON HARBOR  SUNNY     22  13  68 NE8       30.13R
BIG RAPIDS     SUNNY     16  11  83 CALM      30.14R
COLDWATER      MOSUNNY   19  12  76 NE10      30.10R
HOLLAND        SUNNY     21  12  68 E8        30.15R
GRAND RAPIDS   PTSUNNY   19  11  70 NE7       30.14R
KALAMAZOO      SUNNY     20  11  68 NE6       30.12R
MARSHALL       MOSUNNY   18  11  73 NE5       30.10R
MUSKEGON       MOSUNNY   20  11  68 E7        30.17R
$$
MIZ016>042-271600-
NORTHERN LOWER MICHIGAN

CITY           SKY/WX    TMP DP  RH WIND       PRES   REMARKS
ALPENA         SUNNY     15   6  67 NE12      30.19R
BEAVER ISLAND  SUNNY     13   8  79 E5        30.21R
BELLAIRE       SUNNY     12  10  88 CALM      30.20S
CADILLAC         N/A     15  10  82 E7        30.11R
CHARLEVOIX     SUNNY     17  11  78 E7        30.22S
FRANKFORT      SUNNY     19  14  82 E3        30.18S
GAYLORD        MOSUNNY   14  10  84 NE7       30.13R
GRAYLING       MOSUNNY   14  10  83 N7        30.15R
HARBOR SPRINGS SUNNY     15   8  71 NE6       30.20R
HOUGHTON LAKE  SUNNY     15   9  76 NE7       30.14R
MANISTEE       SUNNY     18  10  73 E8        30.18S
OSCODA         FLURRIES  19  13  75 N14       30.14S
PELLSTON       SUNNY     12   6  77 N3        30.21R
TRAVERSE CITY  MOSUNNY   17  12  80 CALM      30.18R
$$
MIZ007>008-015-271600-
EASTERN UPPER MICHIGAN

CITY           SKY/WX    TMP DP  RH WIND       PRES   REMARKS
KINROSS        MOSUNNY    9   1  72 NE7       30.22R
MACKINAC ISLAN MOSUNNY   14   6  71 NE9       30.21R
NEWBERRY       MOSUNNY    5  -2  72 E5        30.21R
S. S. MARIE    MOSUNNY    8  -3  61 E6        30.23R
$$
MIZ004>006-011>014-085-271600-
CENTRAL UPPER MICHIGAN

CITY           SKY/WX    TMP DP  RH WIND       PRES   REMARKS
MANISTIQUE     MOSUNNY   10   4  77 CALM      30.22R
ESCANABA       CLOUDY    16  12  86 NE6       30.19R
MENOMINEE      CLOUDY    21  19  93 NE7       30.18R
SAWYER-GWINN   FOG       16  14  93 CALM      30.15R VSB 1/2
$$
MIZ001>003-009>011-084-271600-
WESTERN UPPER MICHIGAN

CITY           SKY/WX    TMP DP  RH WIND       PRES   REMARKS
IRON MOUNTAIN  CLOUDY    17  15  92 CALM      30.14R
HOUGHTON       SUNNY     16  13  88 S5        30.13R
COPPER HARBOR    N/A     18  13  80 W5        30.16R
IRONWOOD       CLOUDY    21  19  93 S3        30.09S
$$

ABBREVIATIONS USED IN REMARKS
   TC - TEMPERATURE IN CELSIUS
  WCI - WIND CHILL INDEX
   HX - HEAT INDEX
  VSB - VISIBILITY



USA.gov is the U.S. government's official web portal to all federal, state and local government web resources and services.